Location: Cluj-Napoca
(46.7712°N, 23.6236°E)
Time: 12:15:41
(UTC+03:00)

ISS - Pass Details

Date: 06 May 2021
Orbit: 417 x 422 km, 51.6° (Epoch: 15 May)

Event Time Altitude Azimuth Distance (km) Brightness Sun altitude
Exits shadow 05:21:14 - 285° (WNW) 2,360 -0.3 -7.1°
Reaches altitude 10° 05:23:26 10° 295° (WNW) 1,506 -1.2 -6.7°
Maximum altitude 05:26:34 34° 3° (N) 713 -2.2 -6.3°
Drops below altitude 10° 05:29:42 10° 71° (ENE) 1,508 0.7 -5.8°
Sets 05:31:55 0° 80° (E) 2,373 1.6 -5.5°
